Location: Unspecified
(48.5670°N, 0.0000°E)
Time: 11:54:33
(UTC+00:00)

Tiros 1 - Pass Details

Date: 25 October 2020
Orbit: 630 x 664 km, 48.4° (Epoch: 03 December)

Event Time Altitude Azimuth Distance (km) Brightness Sun altitude
Exits shadow 04:33:53 19° 196° (SSW) 1,499 8.8 -20.7°
Maximum altitude 04:36:19 31° 148° (SSE) 1,107 8.6 -20.3°
Drops below altitude 10° 04:40:23 10° 86° (E) 2,009 10.9 -19.7°
Sets 04:42:54 0° 76° (ENE) 2,921 12.1 -19.2°
